This demonstration page uses our WeatherBlox Daily Observations layout. Learn more.

36.17497, -115.13722

Hourly Observations for April 24, 2018

Temp ( °F °C ) Dew Point ( °F °C ) Humidity (%) Winds ( mph kmh ) Pressure ( in mb ) Visibility ( mi km ) Precip ( " mm )
12:53 am 00:53 Clear 74 23.3 17 -8.3 11 11 N 7 11 29.85 1011 10 16.09344 0 0
1:53 am 01:53 Clear 70 21.1 24 -4.4 18 18 Calm 29.85 1011 10 16.09344 0 0
2:53 am 02:53 Clear 67 19.4 23 -5 19 19 Calm 29.88 1012 10 16.09344 0 0
3:53 am 03:53 Clear 69 20.6 19 -7.2 15 15 N 3 6 29.88 1012 10 16.09344 0 0
4:53 am 04:53 Clear 67 19.4 18 -7.8 15 15 N 9 15 29.91 1013 10 16.09344 0 0
5:53 am 05:53 Clear 70 21.1 16 -8.9 12 12 Calm 29.94 1014 10 16.09344 0 0
6:53 am 06:53 Sunny 68 20 21 -6.1 17 17 N 6 9 29.97 1015 10 16.09344 0 0
7:53 am 07:53 Sunny 74 23.3 22 -5.6 14 14 NNW 7 11 29.97 1015 10 16.09344 0 0
8:53 am 08:53 Sunny 77 25 22 -5.6 13 13 N 5 7 29.97 1015 10 16.09344 0 0
9:53 am 09:53 Sunny 78 25.6 21 -6.1 12 12 N 3 6 30 1016 10 16.09344 0 0
10:53 am 10:53 Sunny 82 27.8 21 -6.1 10 10 N 5 7 30 1016 10 16.09344 0 0
11:53 am 11:53 Sunny 84 28.9 20 -6.7 9 9 N 3 6 29.97 1015 10 16.09344 0 0
12:53 pm 12:53 Sunny 85 29.4 19 -7.2 9 9 SSE 5 7 29.94 1014 10 16.09344 0 0
1:53 pm 13:53 Sunny 88 31.1 19 -7.2 8 8 ESE 10 17 29.91 1013 10 16.09344 0 0
2:53 pm 14:53 Sunny 88 31.1 19 -7.2 8 8 WSW 6 9 29.91 1013 10 16.09344 0 0
3:53 pm 15:53 Sunny 90 32.2 19 -7.2 7 7 ENE 3 6 29.88 1012 10 16.09344 0 0
4:53 pm 16:53 Sunny 89 31.7 18 -7.8 7 7 Calm 29.88 1012 10 16.09344 0 0
5:53 pm 17:53 Sunny 88 31.1 19 -7.2 8 8 ENE 3 6 29.85 1011 10 16.09344 0 0
6:53 pm 18:53 Sunny 88 31.1 19 -7.2 8 8 NE 5 7 29.85 1011 10 16.09344 0 0
7:53 pm 19:53 Clear 85 29.4 20 -6.7 9 9 E 5 7 29.88 1012 10 16.09344 0 0
8:53 pm 20:53 Clear 83 28.3 21 -6.1 10 10 SSE 3 6 29.91 1013 10 16.09344 0 0
9:53 pm 21:53 Clear 80 26.7 21 -6.1 11 11 NNE 5 7 29.91 1013 10 16.09344 0 0
10:53 pm 22:53 Clear 75 23.9 31 -0.6 20 20 NNW 7 11 29.91 1013 10 16.09344 0 0
11:53 pm 23:53 Clear 76 24.4 23 -5 14 14 Calm 29.94 1014 10 16.09344 0 0

Powered by AerisWeather